Weather History for Naples, FL

Change the Weather History Date:

Wednesday, January 11, 2012

  Actual Average Record
Temperature  
Mean Temperature 67 °F 64 °F  
Max Temperature 72 °F 75 °F 86 °F (2012)
Min Temperature 62 °F 54 °F 30 °F (1970)
Degree Days  
Heating Degree Days 0 4  
Month to date heating degree days 51 38  
Since 1 July heating degree days 76 116  
Cooling Degree Days 2 3  
Month to date cooling degree days 13 33  
Year to date cooling degree days 13 33  
Growing Degree Days 18 (Base 50)    
Moisture  
Dew Point 64 °F    
Average Humidity 86    
Maximum Humidity 93    
Minimum Humidity 79    
Precipitation  
Precipitation 0.02 in 0.06 in 1.18 in (1973)
Month to date precipitation 0.02 0.60  
Year to date precipitation 0.02 0.60  
Snow  
Snow 0.00 in - - ()
Month to date snowfall 0.0  
Since 1 July snowfall 0.0  
Snow Depth 0.00 in    
Sea Level Pressure  
Sea Level Pressure 29.88 in    
Wind  
Wind Speed 10 mph (SSW)    
Max Wind Speed 36 mph    
Max Gust Speed 43 mph    
Visibility 8 miles    
Events Rain    
T = Trace of Precipitation, MM = Missing Value Source: NWS Daily Summary

Daily Weather History Graph

Daily Weather History Graph

Search for Another Location

Airport:

Trip Planner

Search our weather history database for the weather conditions in past years. The results will help you decide how hot, cold, wet, or windy it might be!

Date:

Astronomy

Jan. 11, 2012 Rise Set
Actual Time 7:16 AM EST 5:53 PM EST
Civil Twilight 6:51 AM EST 6:18 PM EST
Nautical Twilight 6:22 AM EST 6:47 PM EST
Astronomical Twilight 5:54 AM EST 7:15 PM EST
Moon 8:30 PM EST (1/11) 8:44 AM EST (1/11)
Length of Visible Light 11h 27m
Length of Day
10h 37m
Waning Gibbous, 93% of the Moon is Illuminated
Jan 11
Waning Gibbous
Jan 16
Last Quarter
Jan 23
New
Jan 30
First Quarter
Feb 7
Full

Hourly Weather History & Observations

Time (EST) Temp. Dew Point Humidity Pressure Visibility Wind Dir Wind Speed Gust Speed Precip Events Conditions
12:53 AM 64.9 °F 60.1 °F 84% 29.96 in 10.0 mi SE 8.1 mph - N/A   Clear
1:53 AM 64.9 °F 60.1 °F 84% 29.95 in 10.0 mi ESE 4.6 mph - N/A   Clear
2:53 AM 64.0 °F 60.1 °F 87% 29.94 in 10.0 mi ESE 4.6 mph - N/A   Clear
3:53 AM 64.0 °F 60.1 °F 87% 29.93 in 10.0 mi ESE 4.6 mph - N/A   Clear
4:53 AM 63.0 °F 59.0 °F 87% 29.92 in 10.0 mi ESE 5.8 mph - N/A   Clear
5:53 AM 63.0 °F 60.1 °F 90% 29.94 in 10.0 mi SE 5.8 mph - N/A   Clear
6:53 AM 64.0 °F 60.1 °F 87% 29.91 in 10.0 mi SE 10.4 mph - N/A   Clear
7:53 AM 66.9 °F 62.1 °F 84% 29.90 in 10.0 mi South 13.8 mph - N/A   Clear
8:53 AM 69.1 °F 64.0 °F 84% 29.86 in 7.0 mi South 25.3 mph 38.0 mph 0.00 in Rain Light Rain
9:53 AM 70.0 °F 64.9 °F 84% 29.87 in 9.0 mi South 18.4 mph 34.5 mph 0.02 in   Clear
10:53 AM 72.0 °F 66.0 °F 81% 29.87 in 10.0 mi South 20.7 mph 28.8 mph N/A   Clear
11:53 AM 71.1 °F 66.0 °F 84% 29.87 in 8.0 mi South 17.3 mph 25.3 mph N/A   Scattered Clouds
12:53 PM 71.1 °F 64.9 °F 81% 29.85 in 7.0 mi SSW 10.4 mph 19.6 mph N/A   Clear
1:53 PM 71.1 °F 66.0 °F 84% 29.83 in 7.0 mi SSW 9.2 mph - N/A   Mostly Cloudy
2:53 PM 71.1 °F 66.0 °F 84% 29.83 in 8.0 mi SSW 9.2 mph - N/A   Scattered Clouds
3:53 PM 72.0 °F 66.9 °F 84% 29.83 in 6.0 mi SSW 10.4 mph - N/A   Haze
4:53 PM 71.1 °F 66.9 °F 87% 29.83 in 6.0 mi SW 8.1 mph - N/A   Clear
5:53 PM 70.0 °F 66.9 °F 90% 29.85 in 4.0 mi Calm Calm - N/A   Clear
6:53 PM 70.0 °F 66.0 °F 87% 29.88 in 5.0 mi West 3.5 mph - N/A   Clear
7:53 PM 68.4 °F 66.0 °F 92% 29.87 in 6.0 mi WNW 5.8 mph - N/A   Clear
8:11 PM 68.0 °F 64.4 °F 88% 29.88 in 7.0 mi West 5.8 mph - N/A   Mostly Cloudy
8:53 PM 69.1 °F 64.9 °F 87% 29.89 in 7.0 mi WSW 5.8 mph - N/A   Overcast
9:53 PM 69.4 °F 66.0 °F 89% 29.89 in 9.0 mi WSW 8.1 mph - N/A   Overcast
10:53 PM 70.0 °F 66.0 °F 87% 29.88 in 9.0 mi WSW 9.2 mph - N/A   Overcast
11:19 PM 69.8 °F 66.2 °F 88% 29.88 in 8.0 mi SW 6.9 mph - N/A   Overcast
11:53 PM 69.1 °F 66.9 °F 93% 29.89 in 7.0 mi SW 10.4 mph - N/A   Overcast